CSC3454 ZULS-ZLXN

Flight info

Callsign CSC3454
Flight time N/A
Altitude 37100
Route DM01D DM W500 TAPUN DCT IGELA B213 PARGU DCT KADKI DCT UPVOP UPV19A
Aircraft A319/M-SDE3FGHIRWY/LB1

Departure

Time 2026-04-29 11:31
Airport Lhasa Gonggar International Airport (ZULS)

Arrival

Time N/A
Airport Xining Caojiabao International Airport (ZLXN)
Time Latitude Longitude Altitude Speed Heading
2026-04-29 11:18 29.29158 90.89222 11925 ft 0 kts 104°
2026-04-29 11:24 29.29159 90.89217 11923 ft 2 kts 104°
2026-04-29 11:24 29.29163 90.89200 11924 ft 2 kts 103°
2026-04-29 11:24 29.29165 90.89190 11925 ft 2 kts 103°
2026-04-29 11:25 29.29167 90.89172 11925 ft 2 kts 88°
2026-04-29 11:25 29.29165 90.89156 11926 ft 2 kts 75°
2026-04-29 11:25 29.29160 90.89140 11927 ft 2 kts 63°
2026-04-29 11:25 29.29153 90.89124 11928 ft 2 kts 52°
2026-04-29 11:26 29.29130 90.89102 11931 ft 2 kts 28°
2026-04-29 11:26 29.29117 90.89096 11932 ft 1 kts 17°
2026-04-29 11:26 29.29111 90.89094 11933 ft 0 kts 13°
2026-04-29 11:27 29.29110 90.89094 11933 ft 0 kts 13°
2026-04-29 11:28 29.29125 90.89098 11932 ft 7 kts 14°
2026-04-29 11:28 29.29211 90.89123 11925 ft 14 kts 14°
2026-04-29 11:28 29.29301 90.89149 11925 ft 11 kts 14°
2026-04-29 11:29 29.29373 90.89170 11925 ft 9 kts 14°
2026-04-29 11:29 29.29433 90.89188 11925 ft 7 kts 15°
2026-04-29 11:29 29.29485 90.89198 11925 ft 9 kts 360°
2026-04-29 11:29 29.29582 90.89197 11923 ft 18 kts 359°
2026-04-29 11:30 29.29703 90.89194 11922 ft 16 kts 358°
2026-04-29 11:30 29.29777 90.89246 11922 ft 11 kts 82°
2026-04-29 11:30 29.29778 90.89271 11921 ft 14 kts 89°
2026-04-29 11:30 29.29784 90.89689 11919 ft 88 kts 90°
2026-04-29 11:31 29.29799 90.90636 11918 ft 150 kts 89°
2026-04-29 11:31 29.29823 90.92067 11940 ft 200 kts 90°
2026-04-29 11:31 29.29819 90.93681 12540 ft 205 kts 93°
2026-04-29 11:31 29.29777 90.95291 13353 ft 204 kts 93°
2026-04-29 11:32 29.29738 90.96892 14049 ft 199 kts 93°
2026-04-29 11:32 29.29710 90.98505 14262 ft 207 kts 93°
2026-04-29 11:32 29.29686 91.00170 14447 ft 217 kts 92°
2026-04-29 11:32 29.29681 91.01942 14639 ft 227 kts 91°
2026-04-29 11:33 29.29685 91.03793 14823 ft 239 kts 91°
2026-04-29 11:33 29.29688 91.05760 14975 ft 254 kts 91°
2026-04-29 11:33 29.29693 91.07849 15208 ft 267 kts 91°
2026-04-29 11:33 29.29695 91.10014 15439 ft 280 kts 91°
2026-04-29 11:34 29.29698 91.12294 15766 ft 289 kts 91°
2026-04-29 11:34 29.29699 91.14594 16224 ft 293 kts 91°
2026-04-29 11:34 29.29702 91.16937 16748 ft 295 kts 91°
2026-04-29 11:34 29.29703 91.19280 17263 ft 296 kts 92°
2026-04-29 11:35 29.29528 91.21595 17762 ft 297 kts 102°
2026-04-29 11:35 29.29006 91.23893 18281 ft 297 kts 110°
2026-04-29 11:35 29.28340 91.26126 18708 ft 301 kts 105°
2026-04-29 11:35 29.28042 91.28578 18890 ft 316 kts 95°
2026-04-29 11:36 29.27957 91.31119 19061 ft 329 kts 94°
2026-04-29 11:36 29.27877 91.33791 19239 ft 342 kts 94°
2026-04-29 11:36 29.27774 91.36560 19416 ft 355 kts 95°
2026-04-29 11:36 29.27642 91.39447 19656 ft 366 kts 95°
2026-04-29 11:37 29.27494 91.42321 20078 ft 370 kts 95°
2026-04-29 11:37 29.27335 91.45288 20579 ft 371 kts 95°
2026-04-29 11:37 29.27172 91.48222 21050 ft 374 kts 96°
2026-04-29 11:37 29.27002 91.51200 21502 ft 378 kts 96°
2026-04-29 11:38 29.26830 91.54192 21980 ft 381 kts 96°
2026-04-29 11:38 29.26654 91.57223 22465 ft 384 kts 96°
2026-04-29 11:38 29.26475 91.60291 22963 ft 387 kts 96°
2026-04-29 11:38 29.26293 91.63374 23431 ft 390 kts 96°
2026-04-29 11:39 29.26111 91.66464 23872 ft 394 kts 96°
2026-04-29 11:39 29.25925 91.69582 24331 ft 397 kts 96°
2026-04-29 11:39 29.25753 91.72749 24787 ft 400 kts 94°
2026-04-29 11:39 29.26023 91.75928 25207 ft 408 kts 79°
2026-04-29 11:40 29.27006 91.79002 25639 ft 415 kts 64°
2026-04-29 11:40 29.28523 91.81803 26072 ft 419 kts 58°
2026-04-29 11:40 29.30162 91.84557 26456 ft 423 kts 57°
2026-04-29 11:40 29.31840 91.87353 26828 ft 427 kts 57°
2026-04-29 11:41 29.33532 91.90194 27203 ft 430 kts 58°
2026-04-29 11:41 29.35194 91.93009 27595 ft 433 kts 58°
2026-04-29 11:41 29.36876 91.95879 28009 ft 435 kts 58°
2026-04-29 11:41 29.38576 91.98790 28388 ft 438 kts 57°
2026-04-29 11:42 29.40271 92.01696 28726 ft 442 kts 57°
2026-04-29 11:42 29.41959 92.04596 29088 ft 444 kts 58°
2026-04-29 11:42 29.43677 92.07555 29463 ft 447 kts 57°
2026-04-29 11:42 29.45400 92.10525 29828 ft 450 kts 57°
2026-04-29 11:43 29.47145 92.13533 30158 ft 453 kts 57°
2026-04-29 11:43 29.48903 92.16563 30494 ft 455 kts 57°
2026-04-29 11:43 29.50639 92.19559 30851 ft 458 kts 57°
2026-04-29 11:43 29.52402 92.22614 31187 ft 460 kts 57°
2026-04-29 11:44 29.54159 92.25680 31491 ft 463 kts 57°
2026-04-29 11:44 29.55931 92.28785 31777 ft 466 kts 57°
2026-04-29 11:44 29.57702 92.31889 32080 ft 468 kts 57°
2026-04-29 11:44 29.59487 92.35023 32467 ft 469 kts 57°
2026-04-29 11:45 29.61277 92.38164 32930 ft 467 kts 57°
2026-04-29 11:45 29.63045 92.41272 33395 ft 466 kts 57°
2026-04-29 11:45 29.64796 92.44353 33849 ft 465 kts 57°
2026-04-29 11:45 29.66579 92.47495 34269 ft 465 kts 56°
2026-04-29 11:46 29.68336 92.50591 34633 ft 466 kts 57°
2026-04-29 11:46 29.70108 92.53716 35020 ft 466 kts 56°
2026-04-29 11:46 29.71878 92.56839 35394 ft 466 kts 57°
2026-04-29 11:46 29.73634 92.59945 35783 ft 466 kts 56°
2026-04-29 11:47 29.75393 92.63055 36134 ft 466 kts 56°
2026-04-29 11:47 29.77155 92.66175 36386 ft 468 kts 57°
2026-04-29 11:47 29.78923 92.69318 36620 ft 470 kts 57°
2026-04-29 11:47 29.80714 92.72509 36834 ft 472 kts 57°
2026-04-29 11:48 29.82489 92.75666 37058 ft 474 kts 57°
2026-04-29 11:48 29.84283 92.78857 37285 ft 475 kts 56°
2026-04-29 11:48 29.86076 92.82041 37502 ft 476 kts 56°
2026-04-29 11:48 29.87883 92.85255 37718 ft 478 kts 57°
2026-04-29 11:49 29.89669 92.88435 37840 ft 480 kts 56°
2026-04-29 11:49 29.91503 92.91699 37853 ft 482 kts 56°
2026-04-29 11:49 29.95128 92.98167 37863 ft 481 kts 56°
2026-04-29 11:50 29.98778 93.04674 37866 ft 482 kts 55°
2026-04-29 11:50 30.02775 93.10842 37870 ft 480 kts 49°
2026-04-29 11:51 30.07120 93.16766 37877 ft 482 kts 47°
2026-04-29 11:51 30.11459 93.22652 37869 ft 482 kts 47°
2026-04-29 11:52 30.15783 93.28525 37866 ft 481 kts 48°
2026-04-29 11:52 30.20114 93.34458 37875 ft 483 kts 48°
2026-04-29 11:53 30.24433 93.40398 37873 ft 482 kts 48°
2026-04-29 11:53 30.28720 93.46313 37877 ft 484 kts 48°
2026-04-29 11:54 30.33033 93.52277 37890 ft 486 kts 49°
2026-04-29 11:54 30.36867 93.58700 37887 ft 486 kts 59°
2026-04-29 11:55 30.39691 93.65769 37888 ft 487 kts 71°
2026-04-29 11:55 30.41524 93.73335 37881 ft 487 kts 78°
2026-04-29 11:56 30.43048 93.80956 37872 ft 488 kts 77°
2026-04-29 11:56 30.44614 93.88561 37855 ft 487 kts 77°
2026-04-29 11:57 30.46198 93.96179 37825 ft 488 kts 77°
2026-04-29 11:57 30.47794 94.03818 37828 ft 488 kts 77°
2026-04-29 11:58 30.49372 94.11427 37811 ft 488 kts 77°
2026-04-29 11:58 30.50944 94.19025 37840 ft 488 kts 77°
2026-04-29 11:59 30.52590 94.26648 37872 ft 489 kts 76°
2026-04-29 11:59 30.54275 94.34302 37857 ft 490 kts 76°
2026-04-29 12:00 30.55936 94.41915 37847 ft 489 kts 76°
2026-04-29 12:00 30.57600 94.49610 37814 ft 490 kts 76°
2026-04-29 12:01 30.59247 94.57246 37807 ft 491 kts 76°
2026-04-29 12:01 30.60899 94.64913 37821 ft 491 kts 76°
2026-04-29 12:02 30.62537 94.72584 37835 ft 492 kts 76°
2026-04-29 12:02 30.64180 94.80305 37840 ft 492 kts 76°
2026-04-29 12:03 30.65830 94.88047 37838 ft 494 kts 76°
2026-04-29 12:03 30.67467 94.95764 37830 ft 495 kts 76°
2026-04-29 12:04 30.69099 95.03469 37819 ft 494 kts 76°
2026-04-29 12:04 30.70734 95.11217 37820 ft 497 kts 76°
2026-04-29 12:05 30.72367 95.18985 37825 ft 496 kts 76°
2026-04-29 12:05 30.74007 95.26796 37826 ft 498 kts 75°
2026-04-29 12:06 30.75631 95.34565 37820 ft 497 kts 75°
2026-04-29 12:06 30.77255 95.42351 37812 ft 497 kts 76°
2026-04-29 12:07 30.78869 95.50143 37797 ft 498 kts 75°
2026-04-29 12:07 30.80482 95.57933 37777 ft 497 kts 75°
2026-04-29 12:08 30.82105 95.65810 37772 ft 499 kts 76°
2026-04-29 12:08 30.83708 95.73652 37778 ft 499 kts 75°
2026-04-29 12:09 30.85385 95.81458 37792 ft 500 kts 74°
2026-04-29 12:09 30.87078 95.89233 37804 ft 499 kts 74°
2026-04-29 12:10 30.88774 95.97103 37810 ft 505 kts 75°
2026-04-29 12:10 30.90485 96.05084 37816 ft 515 kts 75°
2026-04-29 12:11 30.92216 96.13187 37814 ft 524 kts 75°
2026-04-29 12:11 30.93972 96.21474 37812 ft 530 kts 75°
2026-04-29 12:12 30.95732 96.29789 37821 ft 530 kts 75°
2026-04-29 12:12 30.98136 96.37835 37826 ft 527 kts 61°
2026-04-29 12:13 31.02002 96.45007 37835 ft 517 kts 46°
2026-04-29 12:13 31.07013 96.50866 37837 ft 510 kts 34°
2026-04-29 12:14 31.12452 96.56132 37829 ft 507 kts 32°
2026-04-29 12:14 31.17872 96.61368 37813 ft 507 kts 32°
2026-04-29 12:15 31.23299 96.66694 37810 ft 509 kts 34°
2026-04-29 12:15 31.28659 96.72041 37811 ft 508 kts 34°
2026-04-29 12:16 31.34042 96.77412 37814 ft 508 kts 33°
2026-04-29 12:16 31.39388 96.82734 37799 ft 508 kts 33°
2026-04-29 12:17 31.44766 96.88098 37798 ft 510 kts 33°
2026-04-29 12:17 31.50146 96.93472 37793 ft 509 kts 33°
2026-04-29 12:18 31.55549 96.98880 37779 ft 508 kts 33°
2026-04-29 12:18 31.60873 97.04211 37770 ft 506 kts 33°
2026-04-29 12:19 31.66251 97.09608 37745 ft 506 kts 33°
2026-04-29 12:19 31.71581 97.14957 37745 ft 507 kts 33°
2026-04-29 12:20 31.76925 97.20340 37735 ft 505 kts 33°
2026-04-29 12:20 31.82244 97.25703 37747 ft 504 kts 32°
2026-04-29 12:21 31.87556 97.31065 37742 ft 504 kts 32°
2026-04-29 12:21 31.92874 97.36438 37738 ft 504 kts 32°
2026-04-29 12:22 31.98138 97.41777 37740 ft 501 kts 32°
2026-04-29 12:22 32.03422 97.47133 37736 ft 502 kts 32°
2026-04-29 12:23 32.08712 97.52504 37737 ft 501 kts 32°
2026-04-29 12:23 32.13963 97.57838 37755 ft 498 kts 32°
2026-04-29 12:24 32.19237 97.63190 37764 ft 501 kts 32°
2026-04-29 12:24 32.24493 97.68562 37762 ft 499 kts 33°
2026-04-29 12:25 32.29687 97.73905 37773 ft 496 kts 32°
2026-04-29 12:26 32.37513 97.81932 37741 ft 498 kts 32°
2026-04-29 12:26 32.42718 97.87279 37719 ft 498 kts 32°
2026-04-29 12:27 32.47927 97.92638 37722 ft 497 kts 32°
2026-04-29 12:27 32.53133 97.98002 37727 ft 496 kts 32°
2026-04-29 12:28 32.58355 98.03383 37715 ft 497 kts 32°
2026-04-29 12:28 32.63550 98.08753 37710 ft 495 kts 32°
2026-04-29 12:29 32.68734 98.14123 37725 ft 495 kts 32°
2026-04-29 12:29 32.73896 98.19472 37733 ft 497 kts 32°
2026-04-29 12:30 32.79064 98.24845 37723 ft 493 kts 32°
2026-04-29 12:30 32.84247 98.30238 37716 ft 495 kts 32°
2026-04-29 12:31 32.89403 98.35616 37711 ft 494 kts 32°
2026-04-29 12:31 32.94523 98.40974 37718 ft 493 kts 33°
2026-04-29 12:32 32.99484 98.46677 37731 ft 498 kts 36°
2026-04-29 12:32 33.04364 98.52540 37733 ft 496 kts 36°
2026-04-29 12:33 33.09212 98.58374 37734 ft 499 kts 36°
2026-04-29 12:33 33.12417 98.62228 37742 ft 499 kts 36°